TimeEST,TemperatureF,Dew PointF,Humidity,Sea Level PressureIn,VisibilityMPH,Wind Direction,Wind SpeedMPH,Gust SpeedMPH,PrecipitationIn,Events,Conditions,WindDirDegrees,DateUTC
12:15 AM,28.4,28.4,100,30.13,10.0,Calm,Calm,-,N/A,Rain,Freezing Rain,0,2013-01-26 05:15:00
12:35 AM,28.4,28.4,100,30.13,10.0,Calm,Calm,-,N/A,Rain,Freezing Rain,0,2013-01-26 05:35:00
12:55 AM,28.4,28.4,100,30.13,10.0,Calm,Calm,-,N/A,Rain,Freezing Rain,0,2013-01-26 05:55:00
1:15 AM,28.4,28.4,100,30.13,9.0,Calm,Calm,-,N/A,Rain,Freezing Rain,0,2013-01-26 06:15:00
1:35 AM,26.6,26.6,100,30.13,8.0,Calm,Calm,-,N/A,Rain,Freezing Rain,0,2013-01-26 06:35:00
1:55 AM,26.6,26.6,100,30.12,9.0,Calm,Calm,-,N/A,Rain,Freezing Rain,0,2013-01-26 06:55:00
2:15 AM,26.6,26.6,100,30.12,10.0,Calm,Calm,-,N/A,Rain,Freezing Rain,0,2013-01-26 07:15:00
2:35 AM,26.6,26.6,100,30.12,10.0,Calm,Calm,-,N/A,Rain,Freezing Rain,0,2013-01-26 07:35:00
2:55 AM,26.6,26.6,100,30.12,10.0,Calm,Calm,-,N/A,Rain,Freezing Rain,0,2013-01-26 07:55:00
3:15 AM,26.6,26.6,100,30.12,10.0,Calm,Calm,-,N/A,Rain,Freezing Rain,0,2013-01-26 08:15:00
3:35 AM,26.6,26.6,100,30.12,9.0,Calm,Calm,-,N/A,Rain,Freezing Rain,0,2013-01-26 08:35:00
3:55 AM,26.6,26.6,100,30.12,10.0,Calm,Calm,-,N/A,Rain,Freezing Rain,0,2013-01-26 08:55:00
4:15 AM,24.8,24.8,100,30.12,10.0,Calm,Calm,-,N/A,Rain,Freezing Rain,0,2013-01-26 09:15:00
4:35 AM,24.8,24.8,100,30.12,10.0,Calm,Calm,-,N/A,Rain,Freezing Rain,0,2013-01-26 09:35:00
5:15 AM,26.6,26.6,100,30.13,10.0,Calm,Calm,-,N/A,Rain,Freezing Rain,0,2013-01-26 10:15:00
5:35 AM,26.6,26.6,100,30.12,10.0,Calm,Calm,-,N/A,Rain,Freezing Rain,0,2013-01-26 10:35:00
6:15 AM,26.6,26.6,100,30.12,10.0,Calm,Calm,-,N/A,Rain,Freezing Rain,0,2013-01-26 11:15:00
6:35 AM,26.6,26.6,100,30.13,10.0,Calm,Calm,-,N/A,Rain,Freezing Rain,0,2013-01-26 11:35:00
6:55 AM,26.6,26.6,100,30.14,10.0,Calm,Calm,-,N/A,Rain,Freezing Rain,0,2013-01-26 11:55:00
7:15 AM,26.6,26.6,100,30.15,10.0,Calm,Calm,-,N/A,Rain,Freezing Rain,0,2013-01-26 12:15:00
7:35 AM,26.6,26.6,100,30.17,10.0,Calm,Calm,-,N/A,Rain,Freezing Rain,0,2013-01-26 12:35:00
7:55 AM,26.6,26.6,100,30.17,10.0,Calm,Calm,-,N/A,Rain,Freezing Rain,0,2013-01-26 12:55:00
8:15 AM,28.4,28.4,100,30.18,9.0,Calm,Calm,-,N/A,Rain,Freezing Rain,0,2013-01-26 13:15:00
8:35 AM,28.4,28.4,100,30.19,9.0,Calm,Calm,-,N/A,Rain,Freezing Rain,0,2013-01-26 13:35:00
8:55 AM,28.4,28.4,100,30.19,6.0,Calm,Calm,-,N/A,Rain,Freezing Rain,0,2013-01-26 13:55:00
9:15 AM,30.2,30.2,100,30.20,8.0,Calm,Calm,-,N/A,Rain,Freezing Rain,0,2013-01-26 14:15:00
9:35 AM,32.0,30.2,93,30.21,9.0,Calm,Calm,-,N/A,Rain,Light Rain,0,2013-01-26 14:35:00
9:55 AM,32.0,32.0,100,30.22,8.0,NE,3.5,-,N/A,Rain,Light Rain,50,2013-01-26 14:55:00
10:15 AM,32.0,32.0,100,30.24,9.0,Calm,Calm,-,N/A,Rain,Light Rain,0,2013-01-26 15:15:00
10:35 AM,32.0,32.0,100,30.24,9.0,Calm,Calm,-,N/A,Rain,Light Rain,0,2013-01-26 15:35:00
10:55 AM,32.0,32.0,100,30.25,8.0,Calm,Calm,-,N/A,Rain,Light Rain,0,2013-01-26 15:55:00
11:15 AM,33.8,33.8,100,30.26,7.0,Calm,Calm,-,N/A,,Clear,0,2013-01-26 16:15:00
11:35 AM,35.6,33.8,93,30.26,10.0,NNE,3.5,-,N/A,,Clear,30,2013-01-26 16:35:00
11:55 AM,39.2,35.6,87,30.25,10.0,NNE,5.8,-,N/A,,Clear,30,2013-01-26 16:55:00
12:15 PM,39.2,35.6,87,30.24,10.0,NNE,6.9,-,N/A,,Clear,30,2013-01-26 17:15:00
12:35 PM,41.0,35.6,81,30.24,10.0,NE,4.6,-,N/A,,Clear,50,2013-01-26 17:35:00
12:55 PM,42.8,35.6,76,30.24,10.0,NE,5.8,-,N/A,,Clear,40,2013-01-26 17:55:00
1:15 PM,41.0,35.6,81,30.23,10.0,NNE,4.6,-,N/A,,Clear,30,2013-01-26 18:15:00
1:35 PM,41.0,33.8,76,30.22,10.0,NE,6.9,-,N/A,,Clear,40,2013-01-26 18:35:00
1:55 PM,44.6,32.0,61,30.22,10.0,East,3.5,-,N/A,,Clear,80,2013-01-26 18:55:00
2:15 PM,44.6,32.0,61,30.22,10.0,Calm,Calm,-,N/A,,Clear,0,2013-01-26 19:15:00
2:35 PM,44.6,32.0,61,30.22,10.0,Calm,Calm,-,N/A,,Clear,0,2013-01-26 19:35:00
2:55 PM,46.4,32.0,57,30.21,10.0,NNE,4.6,-,N/A,,Clear,30,2013-01-26 19:55:00
3:15 PM,46.4,32.0,57,30.22,10.0,NE,3.5,-,N/A,,Clear,40,2013-01-26 20:15:00
3:35 PM,46.4,30.2,53,30.22,10.0,Calm,Calm,-,N/A,,Clear,0,2013-01-26 20:35:00
3:55 PM,46.4,30.2,53,30.22,10.0,Calm,Calm,-,N/A,,Clear,0,2013-01-26 20:55:00
4:15 PM,48.2,32.0,54,30.23,10.0,NNE,3.5,-,N/A,,Clear,30,2013-01-26 21:15:00
4:35 PM,46.4,32.0,57,30.23,10.0,Calm,Calm,-,N/A,,Clear,0,2013-01-26 21:35:00
4:55 PM,44.6,32.0,61,30.23,10.0,Calm,Calm,-,N/A,,Clear,0,2013-01-26 21:55:00
5:15 PM,42.8,32.0,66,30.24,10.0,Calm,Calm,-,N/A,,Clear,0,2013-01-26 22:15:00
5:35 PM,41.0,32.0,70,30.24,10.0,Calm,Calm,-,N/A,,Clear,0,2013-01-26 22:35:00
6:15 PM,39.2,32.0,75,30.25,10.0,Calm,Calm,-,N/A,,Clear,0,2013-01-26 23:15:00
6:35 PM,37.4,32.0,81,30.27,10.0,Calm,Calm,-,N/A,,Clear,0,2013-01-26 23:35:00
7:15 PM,32.0,32.0,100,30.27,10.0,Calm,Calm,-,N/A,,Clear,0,2013-01-27 00:15:00
7:35 PM,32.0,32.0,100,30.28,10.0,Calm,Calm,-,N/A,,Clear,0,2013-01-27 00:35:00
7:55 PM,32.0,32.0,100,30.28,10.0,Calm,Calm,-,N/A,,Clear,0,2013-01-27 00:55:00
8:15 PM,32.0,32.0,100,30.29,10.0,Calm,Calm,-,N/A,,Clear,0,2013-01-27 01:15:00
8:35 PM,30.2,30.2,100,30.30,10.0,Calm,Calm,-,N/A,,Clear,0,2013-01-27 01:35:00
8:55 PM,32.0,32.0,100,30.30,10.0,Calm,Calm,-,N/A,,Clear,0,2013-01-27 01:55:00
9:15 PM,30.2,30.2,100,30.30,10.0,Calm,Calm,-,N/A,Rain,Freezing Rain,0,2013-01-27 02:15:00
9:35 PM,30.2,30.2,100,30.30,10.0,Calm,Calm,-,N/A,Rain,Freezing Rain,0,2013-01-27 02:35:00
9:55 PM,28.4,28.4,100,30.31,8.0,NE,3.5,-,N/A,Rain,Freezing Rain,40,2013-01-27 02:55:00
10:15 PM,28.4,28.4,100,30.32,9.0,Calm,Calm,-,N/A,,Clear,0,2013-01-27 03:15:00
10:35 PM,28.4,28.4,100,30.33,8.0,Calm,Calm,-,N/A,,Clear,0,2013-01-27 03:35:00
10:55 PM,30.2,30.2,100,30.34,8.0,Calm,Calm,-,N/A,,Clear,0,2013-01-27 03:55:00
11:15 PM,28.4,28.4,100,30.34,6.0,Calm,Calm,-,N/A,,Clear,0,2013-01-27 04:15:00
11:35 PM,28.4,28.4,100,30.35,5.0,Calm,Calm,-,N/A,,Clear,0,2013-01-27 04:35:00
11:55 PM,28.4,28.4,100,30.35,5.0,Calm,Calm,-,N/A,,Clear,0,2013-01-27 04:55:00